Regional Weather Roundup
Issued by NWS

Home | Current Version | Previous Version | Text Only | Print | Product List | Glossary On
Versions: 1 2 3 4 5 6 7 8 9 10 11 12 13 14 15 16 17 18 19 20 21 22 23 24 25 26 27 28 29 30 31 32 33 34 35 36 37 38 39 40 41 42 43 44 45 46 47 48 49 50
000
ASUS43 KLOT 162009
RWRIL

ILLINOIS REGIONAL WEATHER ROUNDUP
NATIONAL WEATHER SERVICE CHICAGO/ROMEOVILLE IL
300 PM CDT WED AUG 16 2017

NOTE: "FAIR" INDICATES FEW OR NO CLOUDS BELOW 12,000 FEET WITH NO
SIGNIFICANT WEATHER AND/OR OBSTRUCTIONS TO VISIBILITY.

* THESE STATIONS ARE NOT UNDER NWS QUALITY CONTROL. THEY ALSO MAY NOT
  REPORT WEATHER SUCH AS PRECIPITATION OR FOG.

ILZ001-002-007-009-015-016-024-162100-
NORTHWEST ILLINOIS

CITY           SKY/WX    TMP DP  RH WIND       PRES   REMARKS
MOLINE         PTSUNNY   82  72  71 S10       29.83F HX  87
STERLING*      CLOUDY    81  74  79 SE7       29.87F HX  86
SAVANNA*       LGT RAIN  76  73  91 SE13      29.86F
$$

ILZ003-004-008-010-011-017-018-162100-
NORTH CENTRAL ILLINOIS

CITY           SKY/WX    TMP DP  RH WIND       PRES   REMARKS
ROCKFORD       PTSUNNY   89  68  49 SE16      29.90F HX  93
FREEPORT*      CLOUDY    81  70  68 SE13      29.91F HX  85
ROCHELLE*      RAIN      80  73  77 SE13G20   29.91F HX  84
DE KALB*       MOSUNNY   86  71  59 SE15      29.91F HX  92
PERU*          LGT RAIN  74  72  94 SE5G10    29.90F
$$

ILZ005-006-012>014-019>023-162100-
NORTHEAST ILLINOIS

CITY           SKY/WX    TMP DP  RH WIND       PRES   REMARKS
CHICAGO-OHARE  PTSUNNY   86  67  52 E13       29.91F HX  89
CHICAGO-MIDWAY PTSUNNY   90  66  45 SE12      29.91F HX  92
AURORA         PTSUNNY   87  71  58 SE16      29.91F HX  93
LANSING*       MOSUNNY   88  65  46 S14       29.93F HX  89
JOLIET*        MOSUNNY   86  72  62 S9        29.91F HX  92
WAUKEGAN       SUNNY     77  69  76 NE10      29.93F
DUPAGE AIRPORT SUNNY     88  68  51 S12       29.90F HX  91
KANKAKEE*      MOSUNNY   84  71  65 S6        29.93F HX  89
WHEELING       MOSUNNY   83  71  67 E9        29.93F HX  87
MORRIS*        CLOUDY    82  71  69 S12       29.90F HX  87
ROMEOVILLE*    PTSUNNY   86  66  51 S15       29.91F HX  89
NORTHERLY ISL    N/A     79  69  71 N6          N/A  HX  81
$$

LMZ740>746-162100-
SOUTHERN LAKE MICHIGAN

STATION/POSITION SKY/WX   TEMP    WIND        PRES    VSBY  WAVE
                          AIR SEA DIR/SP/G                  HT/PER
                          (F)     (DEG/KT/KT) (MB)    (MI)  (FT/S)
SOUTHERN BUOY              72 73   60/  8/  8 1015.3          1
WILMETTE HARBOR            74 74   70/  8/ 10   N/A           1/ 3
HARRISON CRIB              76      80/ 10/ 13   N/A
CALUMET HARBOR             78      40/  7/  9 1012.9F
BURNS HARBOR               87     140/  4/ 13 1014.2F
MICHIGAN CITY              82      20/  2/  4   N/A
MICHIGAN CITY 6N           78 76   60/  8/ 10   N/A           1/ 4
ST. JOSEPH                 76 76   60/  8/ 10 1013.9          1/ 3
$$

ILZ025>027-034>036-040-047-049-050-058-095>099-162100-
WEST-CENTRAL ILLINOIS

CITY           SKY/WX    TMP DP  RH WIND       PRES   REMARKS
QUINCY         CLOUDY    81  72  74 S13       29.86F HX  85
GALESBURG*     PTSUNNY   82  73  72 SE10      29.86F HX  88
MACOMB*        MOSUNNY   82  71  70 S12       29.88F HX  86
JACKSONVILLE*  CLOUDY    82  74  77 SE10      29.89F HX  87
PITTSFIELD*    PTSUNNY   82  75  81 SE8       29.90F HX  88
$$

ILZ028>032-037-038-041>044-048-051>054-059>061-162100-
CENTRAL ILLINOIS

CITY           SKY/WX    TMP DP  RH WIND       PRES   REMARKS
PONTIAC        LGT RAIN  78  76  91 S13G31    29.93F HX  81
BLOOMINGTON    LGT RAIN  80  73  79 S16       29.94F HX  84
DECATUR        PTSUNNY   78  73  84 S9        29.93F HX  81
PEORIA         CLOUDY    84  74  71 S15       29.88F HX  91
LACON*         PTSUNNY   83  73  69 S13G20    29.87F HX  89
LINCOLN*       CLOUDY    80  75  84 S10G17    29.91F HX  85
SPRINGFIELD    CLOUDY    84  76  76 SE12G18   29.90F HX  93
TAYLORVILLE    CLOUDY    79  74  82 SE8       29.92F HX  83
$$

ILZ033-039-045-046-055>057-062-063-162100-
EAST-CENTRAL ILLINOIS

CITY           SKY/WX    TMP DP  RH WIND       PRES   REMARKS
CHAMPAIGN      CLOUDY    77  72  84 S12       29.95F
RANTOUL*       LGT RAIN  81  77  88 S10       29.94F HX  89
MATTOON        CLOUDY    78  77  96 SE9       29.94F HX  81
PARIS*         LGT RAIN  82  76  84 S7        29.97F HX  89
$$

ILZ079-100>102-162100-
SOUTHWEST ILLINOIS

CITY           SKY/WX    TMP DP  RH WIND       PRES   REMARKS
ALTON          PTSUNNY   86  75  70 SE8       29.89F HX  95
BELLEVILLE     MOSUNNY   90  76  63 S10       29.89F HX 101
CAHOKIA*       MOSUNNY   91  75  59 SE10      29.87F HX 101
SPARTA*        CLOUDY    87  76  71 S8        29.92F HX  98
$$

ILZ064>066-069>071-074>076-080>082-084>086-088>090-092>094-162100-
SOUTH-CENTRAL ILLINOIS

CITY           SKY/WX    TMP DP  RH WIND       PRES   REMARKS
CARBONDALE     MOSUNNY   87  76  69 S10       29.92F HX  97
CAIRO*         MOSUNNY   88  77  71 S10G16    29.93F HX 100
EFFINGHAM*     MOSUNNY   79  78  95 SE6       29.96F HX  84
MARION         CLOUDY    88  75  66 S15       29.93F HX  97
MT. VERNON     CLOUDY    90  77  65 S8        29.93F HX 103
CENTRALIA*     CLOUDY    89  77  68 SW10      29.91F HX 100
SALEM*         LGT RAIN  83  77  81 SE6       29.92F HX  93
METROPOLIS*    LGT RAIN  91  77  64 S10       29.94F HX 103
$$

ILZ067-068-072-073-078-083-087-091-162100-
SOUTHEAST ILLINOIS

CITY           SKY/WX    TMP DP  RH WIND       PRES   REMARKS
LAWRENCEVILLE  CLOUDY    85  74  69 SE7       29.96F HX  92
FLORA*         CLOUDY    86  77  72 SE9       29.94F HX  97
FAIRFIELD*     CLOUDY    85  77  77 SE3       29.92F HX  94
HARRISBURG*    MOSUNNY   90  77  66 S6        29.93F HX 103
ROBINSON*      CLOUDY    82  74  75 S8        29.96F HX  88
CARMI*         CLOUDY    85  78  80 SE3       29.94F HX  96
$$

ABBREVIATIONS USED IN REMARKS
   TC - TEMPERATURE IN CELSIUS
  WCI - WIND CHILL INDEX
   HX - HEAT INDEX
  VSB - VISIBILITY
$$




USA.gov is the U.S. government's official web portal to all federal, state and local government web resources and services.